Showing default

TBA - TO BE ASSIGNED, 64494

Orbit data source: Space-Track

TBA - TO BE ASSIGNED named objects are likely recently launched satellites that are being tracked but not necessarily identified.

Not visible in the next 10 days
Identifier
64494, 2025-133Y
Orbit
LEO
Last TLE update
12 hours ago
Origin
Manufacturer
SpaceX/Seattle
Mission
Operational spacecraft
Bus & Motor
STARLINK V2MO, Unknown motor
Mass
575 kg wet, ~530 kg dry
Launch date (UTC)
2025-06-23 (1 week ago)
Launch vehicle
FALCON 9
Launch site
Air Force Eastern Test Range (AFETR)
Object type
Payload
Rocket body
Debris
Shape & HBR
Unknown
Radar Cross Section
RCS unknown

Expand to show TLE details & history

TLE from 12 hours ago
0 STARLINK-34226
1 64494U 25133Y   25181.91668981 -.01230948  00000-0 -48180-2 0  9998
2 64494  53.1553 219.1677 0000782  80.8843 142.2487 15.88670906  2293
Epoch: 2025-06-30T22:00Z
TLE epoch observation values (Epoch: 2025-06-30T22:00:01.999Z)
Latitude
-33.38811°
Longitude
179.35074°
Altitude
316.894 km
Speed
7.718 km/s
True Right ascension
04h 34m 18s
True Declination
-33° 13' 12"
Sunlit
Object was in daylight at epoch
Visualization orbit readout
Latitude
-52.19241°
Longitude
-106.46355°
Altitude
328.426 km
Speed
7.711 km/s
Apparent Right ascension
09h 45m 34s
Apparent Declination
-46° 04' 20"
Sunlit
Object is in daylight
Visualization observer readout
Local Sidereal Time
21:57:46
Azimuth
161.1° S
Elevation
-83.453°
Doppler factor
1
Orbital elements
Apogee altitude
306.794 km
Perigee altitude
305.749 km
Semi-major axis
6,684.409 km
Eccentricity
0.00008
Inclination
53.1553°
RAAN
219.1677°
Arg. of periapsis
80.8843°
True anomaly
Unknown
Mean anomaly
142.2487°
Eccentric anomaly
Unknown
Mean motion
3.97145 °/min
Orbital period
90.65 mins
BSTAR
-0.004818
Loading maneuver chart data...
Loading SW <> Apogee altitude chart data...

TBA - TO BE ASSIGNED Visibility

Observer location: undefined°, undefined°

TBA - TO BE ASSIGNED is likely not visible in the next few days
Span
Click to sort rows by Start time (UTC) header in descending order
Start Az.
Max El. time (UTC)
Max El. Az.
Max El.
End time (UTC)
End Az.
|